Погода в Копановке

Россия / Астраханская область     47°27′38″N   46°48′58″E
темп.,
°C
ветер,
м/с
пор.,
м/с
влажн.,
%
обл.,
%
осадки,
мм/ч
давл.,
гПа
погр.,
м
18 мая, вт
вт1801:00+22всв59205 0.0 1008124
04:00+20в513233 0.0 1006207
07:00+23вюв717331 0.0 1007465
10:00+28юв812235 0.0 1007986
13:00+29юв7922100 0.0 10071135
16:00+28вюв31025100 0.0 10081571
19:00+26юв611305 0.0 1007393
22:00+20з686039 0.0 1009190
19 мая, ср
ср1901:00+18зсз5107634 0.0 1009261
04:00+16зсз48830 0.0 1009205
07:00+18сз45720 0.0 1008208
10:00+24сз324897 0.0 1008609
13:00+29зсз223279 0.0 10071438
16:00+29з7626100 0.0 10081796
19:00+23з111444100 0.0 1010860
22:00+18з81369100 0.6 1013675
20 мая, чт
чт2001:00+17зсз496767 0.1 1014500
04:00+15з4978100 0.1 1015302
07:00+15з68740 0.0 1016447
10:00+20з56510 0.0 10161130
13:00+24з56390 0.0 10161887
16:00+26зсз56310 0.0 10152320
19:00+25зсз44316 0.0 10162319
22:00+21сз334193 0.0 101623
21 мая, пт
пт2101:00+18ссз22470 0.0 101713
04:00+17всв33525 0.0 101721
07:00+20вюв35485 0.0 1018151
10:00+26юв553229 0.0 10181004
13:00+28юв5527100 0.0 10181714
16:00+30юв562199 0.0 10171824
19:00+30вюв47240 0.0 1016416
22:00+24ююв6123816 0.0 1018300
22 мая, сб
сб2201:00+21юв412485 0.0 1017230
04:00+20вюв513482 0.0 1017217
07:00+23вюв715410 0.0 1018539
10:00+28вюв10122985 0.0 10171034
13:00+32юв9112013 0.0 10161620
16:00+34юв81020100 0.0 10141933
19:00+30юв6112899 0.0 1014434
22:00+25вюв593254 0.0 1014124